Location: *
(43.9900°N, 3.4811°E)
Time: 13:57:42
(UTC+00:00)

Cosmos 1125 Rocket - Pass Details

Date: 25 August 2019
Orbit: 757 x 781 km, 74.0° (Epoch: 22 September)

Event Time Altitude Azimuth Distance (km) Brightness Sun altitude
Exits shadow 21:39:17 72° 5° (N) 807 3.6 -28.1°
Drops below altitude 10° 21:44:01 10° 20° (NNE) 2,320 6.4 -28.6°
Sets 21:46:25 0° 21° (NNE) 3,255 7.2 -28.8°
